TimeEST,TemperatureF,Dew PointF,Humidity,Sea Level PressureIn,VisibilityMPH,Wind Direction,Wind SpeedMPH,Gust SpeedMPH,PrecipitationIn,Events,Conditions,WindDirDegrees,DateUTC
12:54 AM,64.0,60.1,87,30.18,10.0,Variable,3.5,-,N/A,,Partly Cloudy,0,2012-11-13 05:54:00
1:54 AM,63.0,60.1,90,30.18,10.0,Calm,Calm,-,N/A,,Clear,0,2012-11-13 06:54:00
2:54 AM,64.0,60.1,87,30.17,10.0,Variable,4.6,-,N/A,,Partly Cloudy,0,2012-11-13 07:54:00
3:54 AM,64.0,60.1,87,30.16,10.0,Variable,3.5,-,N/A,,Mostly Cloudy,0,2012-11-13 08:54:00
4:54 AM,64.0,60.1,87,30.17,10.0,Variable,3.5,-,N/A,,Overcast,0,2012-11-13 09:54:00
5:54 AM,63.0,60.1,90,30.18,8.0,Calm,Calm,-,0.01,Rain,Light Rain,0,2012-11-13 10:54:00
6:33 AM,60.8,59.0,94,30.22,4.0,NNW,13.8,24.2,N/A,Rain,Light Rain,340,2012-11-13 11:33:00
6:41 AM,53.6,51.8,94,30.23,2.5,North,12.7,26.5,0.08,Rain,Rain,360,2012-11-13 11:41:00
6:47 AM,51.8,50.0,94,30.24,6.0,North,13.8,25.3,0.08,Rain,Light Rain,360,2012-11-13 11:47:00
6:54 AM,51.1,48.0,89,30.25,6.0,North,11.5,23.0,0.09,Rain,Light Rain,10,2012-11-13 11:54:00
7:24 AM,48.2,46.4,93,30.27,10.0,NNE,9.2,23.0,0.00,Rain,Light Rain,30,2012-11-13 12:24:00
7:33 AM,48.2,46.4,93,30.28,5.0,North,11.5,18.4,0.00,Rain,Light Rain,10,2012-11-13 12:33:00
7:54 AM,48.9,46.0,90,30.30,9.0,NNE,9.2,16.1,0.00,,Overcast,20,2012-11-13 12:54:00
8:31 AM,48.2,44.6,87,30.31,10.0,NNE,10.4,21.9,N/A,,Overcast,20,2012-11-13 13:31:00
8:49 AM,46.4,44.6,93,30.34,10.0,North,11.5,17.3,N/A,,Overcast,10,2012-11-13 13:49:00
8:54 AM,46.9,44.1,90,30.35,10.0,North,9.2,24.2,N/A,,Overcast,10,2012-11-13 13:54:00
9:07 AM,46.4,42.8,87,30.36,8.0,NNE,9.2,21.9,0.00,Rain,Light Rain,30,2012-11-13 14:07:00
9:09 AM,46.4,42.8,87,30.36,7.0,NNE,10.4,21.9,0.00,Rain,Light Rain,30,2012-11-13 14:09:00
9:49 AM,46.4,44.6,93,30.37,3.0,NNE,6.9,-,0.01,Rain,Light Rain,20,2012-11-13 14:49:00
9:54 AM,46.0,44.1,93,30.37,4.0,Variable,5.8,-,0.01,Rain,Light Rain,0,2012-11-13 14:54:00
10:22 AM,46.4,42.8,87,30.37,7.0,NNE,9.2,-,0.00,Rain,Light Rain,20,2012-11-13 15:22:00
10:54 AM,46.0,42.1,86,30.37,8.0,NNE,9.2,17.3,0.00,Rain,Light Rain,20,2012-11-13 15:54:00
11:06 AM,44.6,42.8,93,30.36,10.0,NNE,8.1,16.1,0.00,Rain,Light Rain,20,2012-11-13 16:06:00
11:54 AM,46.0,42.1,86,30.36,7.0,North,6.9,-,0.00,Rain,Light Rain,10,2012-11-13 16:54:00
12:32 PM,44.6,42.8,93,30.35,4.0,NNE,5.8,-,0.02,Rain,Light Rain,20,2012-11-13 17:32:00
12:54 PM,44.1,42.1,93,30.34,5.0,NNE,9.2,-,0.02,Rain,Light Rain,30,2012-11-13 17:54:00
1:13 PM,44.6,41.0,87,30.33,5.0,NNE,9.2,16.1,0.00,,Overcast,20,2012-11-13 18:13:00
1:54 PM,43.0,37.0,80,30.33,10.0,NNE,9.2,-,0.00,,Overcast,30,2012-11-13 18:54:00
2:54 PM,44.1,39.0,82,30.35,10.0,North,5.8,-,0.00,Rain,Light Rain,10,2012-11-13 19:54:00
3:54 PM,44.1,39.0,82,30.36,10.0,Variable,4.6,-,0.00,,Overcast,0,2012-11-13 20:54:00
4:54 PM,43.0,37.9,82,30.37,10.0,North,3.5,-,0.00,,Overcast,10,2012-11-13 21:54:00
5:25 PM,42.8,39.2,87,30.36,8.0,NNE,3.5,-,0.01,Rain,Light Rain,20,2012-11-13 22:25:00
5:54 PM,43.0,39.0,86,30.38,10.0,NNE,3.5,-,0.01,Rain,Light Rain,30,2012-11-13 22:54:00
6:54 PM,43.0,39.9,89,30.40,10.0,Calm,Calm,-,0.00,,Overcast,0,2012-11-13 23:54:00
7:54 PM,44.1,39.9,85,30.41,10.0,NNE,3.5,-,N/A,,Overcast,30,2012-11-14 00:54:00
8:54 PM,44.1,39.0,82,30.43,10.0,Calm,Calm,-,N/A,,Overcast,0,2012-11-14 01:54:00
9:54 PM,44.1,37.9,79,30.43,10.0,North,4.6,-,N/A,,Overcast,360,2012-11-14 02:54:00
10:54 PM,44.1,34.0,68,30.44,10.0,NNE,6.9,-,N/A,,Overcast,20,2012-11-14 03:54:00
11:54 PM,42.1,30.9,65,30.45,10.0,NNE,8.1,-,N/A,,Overcast,20,2012-11-14 04:54:00